| time (UTC) | temp F | wind direction | speed MPH | gust MPH | rain 1hr in | rain 24hr in | rain mn in | humidity % | barometer mb |
| 20260504191805 | 56 | 0 | 0.0 | 0.0 | 0.00 | 0.00 | 0.00 | 80 | 1016.5 |
| 20260504190903 | 56 | 0 | 0.0 | 0.0 | 0.00 | 0.00 | 0.00 | 79 | 1016.3 |
| 20260504190008 | 56 | 0 | 0.0 | 0.0 | 0.00 | 0.00 | 0.00 | 79 | 1016.2 |
| 20260504185614 | 56 | 0 | 0.0 | 0.0 | 0.00 | 0.00 | 0.00 | 79 | 1016.1 |
| 20260504184503 | 56 | 0 | 0.0 | 0.0 | 0.00 | 0.00 | 0.00 | 79 | 1016.0 |
| 20260504183605 | 56 | 0 | 0.0 | 0.0 | 0.00 | 0.00 | 0.00 | 79 | 1015.9 |
| 20260504182914 | 56 | 0 | 0.0 | 0.0 | 0.00 | 0.00 | 0.00 | 79 | 1015.8 |
| 20260504181803 | 56 | 0 | 0.0 | 0.0 | 0.00 | 0.00 | 0.00 | 78 | 1015.5 |
| 20260504180905 | 56 | 0 | 0.0 | 0.0 | 0.00 | 0.00 | 0.00 | 78 | 1015.5 |
| 20260504180004 | 56 | 0 | 0.0 | 0.0 | 0.00 | 0.00 | 0.00 | 77 | 1015.4 |
| 20260504175405 | 57 | 0 | 0.0 | 0.0 | 0.00 | 0.00 | 0.00 | 77 | 1015.4 |
| 20260504174505 | 57 | 0 | 0.0 | 0.0 | 0.00 | 0.00 | 0.00 | 77 | 1015.3 |
| 20260504173604 | 57 | 0 | 0.0 | 0.0 | 0.00 | 0.00 | 0.00 | 77 | 1015.3 |
| 20260504172704 | 57 | 0 | 0.0 | 0.0 | 0.00 | 0.00 | 0.00 | 76 | 1015.3 |
| 20260504171803 | 57 | 0 | 0.0 | 0.0 | 0.00 | 0.00 | 0.00 | 76 | 1015.3 |
| 20260504170904 | 57 | 0 | 0.0 | 0.0 | 0.00 | 0.00 | 0.00 | 76 | 1015.2 |
| 20260504160219 | 56 | 0 | 0.0 | 0.0 | 0.00 | 0.00 | 0.00 | 79 | 1014.9 |
| 20260504150903 | 57 | 0 | 0.0 | 0.0 | 0.00 | 0.00 | 0.00 | 78 | 1014.6 |
| 20260504140904 | 58 | 0 | 0.0 | 0.0 | 0.00 | 0.00 | 0.00 | 77 | 1014.1 |
| 20260504081803 | 60 | 0 | 0.0 | 0.0 | 0.00 | 0.00 | 0.00 | 77 | 1010.6 |
| 20260504080913 | 60 | 0 | 0.0 | 0.0 | 0.00 | 0.00 | 0.00 | 76 | 1010.6 |
| 20260504070214 | 62 | 0 | 0.0 | 0.0 | 0.00 | 0.00 | 0.00 | 67 | 1010.2 |
| 20260504060217 | 65 | 0 | 0.0 | 0.0 | 0.00 | 0.00 | 0.00 | 61 | 1009.7 |
| 20260504050219 | 66 | 0 | 0.0 | 0.0 | 0.00 | 0.00 | 0.00 | 59 | 1009.4 |
| 20260504045404 | 66 | 0 | 0.0 | 0.0 | 0.00 | 0.00 | 0.00 | 57 | 1009.2 |
| 20260504044504 | 66 | 0 | 0.0 | 0.0 | 0.00 | 0.00 | 0.00 | 58 | 1009.4 |
| 20260504043608 | 67 | 0 | 0.0 | 0.0 | 0.00 | 0.00 | 0.00 | 56 | 1009.5 |
| 20260504042704 | 67 | 0 | 0.0 | 0.0 | 0.00 | 0.00 | 0.00 | 56 | 1009.5 |
| 20260504041803 | 67 | 0 | 0.0 | 0.0 | 0.00 | 0.00 | 0.00 | 57 | 1009.5 |
| 20260504040908 | 66 | 0 | 0.0 | 0.0 | 0.00 | 0.00 | 0.00 | 57 | 1009.4 |
| 20260504040004 | 66 | 0 | 0.0 | 0.0 | 0.00 | 0.00 | 0.00 | 59 | 1009.5 |
| 20260504035408 | 65 | 0 | 0.0 | 0.0 | 0.00 | 0.00 | 0.00 | 59 | 1009.5 |
| 20260504034504 | 65 | 0 | 0.0 | 0.0 | 0.00 | 0.00 | 0.00 | 58 | 1009.5 |
| 20260504033605 | 65 | 0 | 0.0 | 0.0 | 0.00 | 0.00 | 0.00 | 57 | 1009.7 |
| 20260504032708 | 66 | 0 | 0.0 | 0.0 | 0.00 | 0.00 | 0.00 | 56 | 1009.7 |
| 20260504031803 | 66 | 0 | 0.0 | 0.0 | 0.00 | 0.00 | 0.00 | 54 | 1009.9 |
| 20260504030904 | 68 | 0 | 0.0 | 0.0 | 0.00 | 0.00 | 0.00 | 53 | 1009.9 |
| 20260504030004 | 67 | 0 | 0.0 | 0.0 | 0.00 | 0.00 | 0.00 | 55 | 1009.9 |
| 20260504025408 | 67 | 0 | 0.0 | 0.0 | 0.00 | 0.00 | 0.00 | 55 | 1010.0 |
| 20260504024503 | 67 | 0 | 0.0 | 0.0 | 0.00 | 0.00 | 0.00 | 56 | 1010.1 |
| 20260504023604 | 66 | 0 | 0.0 | 0.0 | 0.00 | 0.00 | 0.00 | 57 | 1010.2 |
| 20260504022704 | 66 | 0 | 0.0 | 0.0 | 0.00 | 0.00 | 0.00 | 57 | 1010.5 |
| 20260504021804 | 66 | 0 | 0.0 | 0.0 | 0.00 | 0.00 | 0.00 | 57 | 1010.6 |
| 20260504020904 | 65 | 0 | 0.0 | 0.0 | 0.00 | 0.00 | 0.00 | 58 | 1010.5 |
| 20260504020008 | 65 | 0 | 0.0 | 0.0 | 0.00 | 0.00 | 0.00 | 61 | 1010.8 |
| 20260504015403 | 65 | 0 | 0.0 | 0.0 | 0.00 | 0.00 | 0.00 | 62 | 1010.9 |
| 20260504014503 | 64 | 0 | 0.0 | 0.0 | 0.00 | 0.01 | 0.00 | 63 | 1011.0 |
| 20260504013603 | 64 | 0 | 0.0 | 0.0 | 0.00 | 0.03 | 0.00 | 62 | 1011.0 |
| 20260504012703 | 64 | 0 | 0.0 | 0.0 | 0.00 | 0.04 | 0.00 | 63 | 1011.1 |
| 20260504011810 | 64 | 0 | 0.0 | 0.0 | 0.00 | 0.05 | 0.00 | 64 | 1011.2 |
| 20260504010904 | 64 | 0 | 0.0 | 0.0 | 0.00 | 0.08 | 0.00 | 64 | 1011.0 |
| 20260504010009 | 64 | 0 | 0.0 | 0.0 | 0.00 | 0.10 | 0.00 | 63 | 1011.1 |
| 20260504005404 | 64 | 0 | 0.0 | 0.0 | 0.00 | 0.11 | 0.00 | 63 | 1011.0 |
| 20260504004509 | 64 | 0 | 0.0 | 0.0 | 0.00 | 0.13 | 0.00 | 67 | 1011.1 |
| 20260504003604 | 63 | 0 | 0.0 | 0.0 | 0.00 | 0.14 | 0.00 | 65 | 1011.1 |
| 20260504002708 | 63 | 0 | 0.0 | 0.0 | 0.00 | 0.15 | 0.00 | 66 | 1011.2 |
| 20260504001808 | 63 | 0 | 0.0 | 0.0 | 0.00 | 0.17 | 0.00 | 66 | 1011.1 |
| 20260504001124 | 63 | 0 | 0.0 | 0.0 | 0.00 | 0.20 | 0.00 | 67 | 1011.1 |
| 20260504000003 | 62 | 0 | 0.0 | 0.0 | 0.00 | 0.25 | 0.00 | 68 | 1011.1 |
| 20260503235404 | 62 | 0 | 0.0 | 0.0 | 0.00 | 0.27 | 0.00 | 68 | 1011.1 |
| 20260503234508 | 62 | 0 | 0.0 | 0.0 | 0.00 | 0.27 | 0.00 | 68 | 1011.2 |
| 20260503233603 | 62 | 0 | 0.0 | 0.0 | 0.00 | 0.28 | 0.00 | 68 | 1011.4 |
| 20260503232703 | 61 | 0 | 0.0 | 0.0 | 0.00 | 0.30 | 0.00 | 68 | 1011.4 |
| 20260503232014 | 61 | 0 | 0.0 | 0.0 | 0.00 | 0.30 | 0.00 | 69 | 1011.4 |
| 20260503230903 | 60 | 0 | 0.0 | 0.0 | 0.00 | 0.30 | 0.00 | 69 | 1011.5 |
| 20260503230008 | 60 | 0 | 0.0 | 0.0 | 0.00 | 0.30 | 0.00 | 69 | 1011.6 |
| 20260503225404 | 59 | 0 | 0.0 | 0.0 | 0.00 | 0.30 | 0.00 | 70 | 1011.6 |
| 20260503224513 | 59 | 0 | 0.0 | 0.0 | 0.00 | 0.30 | 0.00 | 70 | 1011.4 |
| 20260503223603 | 58 | 0 | 0.0 | 0.0 | 0.00 | 0.30 | 0.00 | 71 | 1011.5 |
| 20260503222918 | 58 | 0 | 0.0 | 0.0 | 0.00 | 0.30 | 0.00 | 71 | 1011.5 |
| 20260503221803 | 58 | 0 | 0.0 | 0.0 | 0.00 | 0.30 | 0.00 | 72 | 1011.4 |
| 20260503220904 | 57 | 0 | 0.0 | 0.0 | 0.00 | 0.30 | 0.00 | 73 | 1011.3 |
| 20260503220214 | 57 | 0 | 0.0 | 0.0 | 0.00 | 0.30 | 0.00 | 74 | 1011.2 |
| 20260503215408 | 57 | 0 | 0.0 | 0.0 | 0.00 | 0.30 | 0.00 | 75 | 1011.3 |
| 20260503214503 | 57 | 0 | 0.0 | 0.0 | 0.00 | 0.30 | 0.00 | 75 | 1011.4 |
| 20260503213603 | 56 | 0 | 0.0 | 0.0 | 0.00 | 0.30 | 0.00 | 75 | 1011.3 |
| 20260503212703 | 56 | 0 | 0.0 | 0.0 | 0.00 | 0.30 | 0.00 | 74 | 1011.3 |
| 20260503211803 | 56 | 0 | 0.0 | 0.0 | 0.00 | 0.30 | 0.00 | 74 | 1011.3 |
| 20260503210904 | 56 | 0 | 0.0 | 0.0 | 0.00 | 0.30 | 0.00 | 75 | 1011.2 |
| 20260503210004 | 56 | 0 | 0.0 | 0.0 | 0.00 | 0.30 | 0.00 | 76 | 1011.2 |
| 20260503205403 | 56 | 0 | 0.0 | 0.0 | 0.00 | 0.30 | 0.00 | 77 | 1011.1 |
| 20260503204504 | 55 | 0 | 0.0 | 0.0 | 0.00 | 0.30 | 0.00 | 77 | 1011.0 |
| 20260503203605 | 55 | 0 | 0.0 | 0.0 | 0.00 | 0.30 | 0.00 | 78 | 1011.1 |
| 20260503202705 | 55 | 0 | 0.0 | 0.0 | 0.00 | 0.30 | 0.00 | 78 | 1011.0 |
| 20260503202015 | 55 | 0 | 0.0 | 0.0 | 0.00 | 0.30 | 0.00 | 78 | 1011.0 |
| 20260503200905 | 55 | 0 | 0.0 | 0.0 | 0.00 | 0.30 | 0.00 | 79 | 1010.9 |
| 20260503200004 | 55 | 0 | 0.0 | 0.0 | 0.00 | 0.30 | 0.00 | 79 | 1010.9 |
| 20260503195403 | 55 | 0 | 0.0 | 0.0 | 0.00 | 0.30 | 0.00 | 79 | 1010.9 |
| 20260503194504 | 55 | 0 | 0.0 | 0.0 | 0.00 | 0.30 | 0.00 | 80 | 1011.0 |
| 20260503193605 | 55 | 0 | 0.0 | 0.0 | 0.00 | 0.30 | 0.00 | 81 | 1011.1 |
| 20260503192705 | 55 | 0 | 0.0 | 0.0 | 0.00 | 0.30 | 0.00 | 81 | 1011.1 |